| time (UTC) | temp C | wind direction | speed KPH | gust KPH | rain 1hr cm | rain 24hr cm | rain mn cm | humidity % | barometer mb |
| 20260506144559 | 10 | 338 | 3.2 | 6.4 | 0.00 | 1.09 | 1.09 | 78 | 1013.0 |
| 20260506144056 | 10 | 357 | 3.2 | 4.8 | 0.00 | 1.09 | 1.09 | 79 | 1012.9 |
| 20260506143554 | 10 | 326 | 4.8 | 4.8 | 0.00 | 1.09 | 1.09 | 80 | 1013.1 |
| 20260506143052 | 10 | 350 | 6.4 | 9.7 | 0.00 | 1.09 | 1.09 | 81 | 1013.0 |
| 20260506142550 | 9 | 305 | 4.8 | 4.8 | 0.00 | 1.09 | 1.09 | 82 | 1013.2 |
| 20260506142048 | 9 | 307 | 1.6 | 3.2 | 0.00 | 1.09 | 1.09 | 82 | 1013.2 |
| 20260506141545 | 9 | 18 | 1.6 | 3.2 | 0.00 | 1.09 | 1.09 | 82 | 1013.1 |
| 20260506141044 | 9 | 277 | 1.6 | 1.6 | 0.00 | 1.09 | 1.09 | 84 | 1013.0 |
| 20260506140541 | 9 | 27 | 3.2 | 4.8 | 0.00 | 1.09 | 1.09 | 83 | 1013.0 |
| 20260506140038 | 8 | 329 | 3.2 | 4.8 | 0.00 | 1.09 | 1.09 | 89 | 1012.7 |
| 20260506135535 | 8 | 338 | 3.2 | 4.8 | 0.00 | 1.09 | 1.09 | 88 | 1013.0 |
| 20260506135031 | 8 | 355 | 6.4 | 6.4 | 0.00 | 1.09 | 1.09 | 89 | 1013.4 |
| 20260506134527 | 8 | 343 | 3.2 | 3.2 | 0.00 | 1.09 | 1.09 | 90 | 1013.2 |
| 20260506134023 | 8 | 325 | 3.2 | 4.8 | 0.00 | 1.09 | 1.09 | 92 | 1013.1 |
| 20260506133521 | 7 | 325 | 4.8 | 4.8 | 0.00 | 1.09 | 1.09 | 94 | 1013.1 |
| 20260506133018 | 7 | 6 | 3.2 | 4.8 | 0.00 | 1.09 | 1.09 | 94 | 1013.1 |
| 20260506132515 | 7 | 339 | 3.2 | 4.8 | 0.00 | 1.09 | 1.09 | 94 | 1013.0 |
| 20260506132012 | 7 | 324 | 6.4 | 6.4 | 0.00 | 1.09 | 1.09 | 96 | 1012.9 |
| 20260506131509 | 7 | 315 | 4.8 | 6.4 | 0.00 | 1.09 | 1.09 | 97 | 1012.7 |
| 20260506131005 | 7 | 8 | 1.6 | 3.2 | 0.00 | 1.09 | 1.09 | 97 | 1012.6 |
| 20260506130502 | 7 | 318 | 1.6 | 3.2 | 0.00 | 1.09 | 1.09 | 98 | 1012.6 |
| 20260506130000 | 7 | 38 | 1.6 | 1.6 | 0.00 | 1.09 | 1.09 | 97 | 1012.3 |
| 20260506125458 | 7 | 12 | 1.6 | 1.6 | 0.00 | 1.09 | 1.09 | 98 | 1012.3 |
| 20260506124955 | 7 | 357 | 3.2 | 3.2 | 0.00 | 1.09 | 1.09 | 98 | 1012.3 |
| 20260506124453 | 7 | 353 | 4.8 | 4.8 | 0.00 | 1.09 | 1.09 | 97 | 1012.4 |
| 20260506123951 | 7 | 42 | 3.2 | 3.2 | 0.00 | 1.09 | 1.09 | 98 | 1012.1 |
| 20260506123448 | 7 | 356 | 8.0 | 9.7 | 0.00 | 1.09 | 1.09 | 99 | 1011.8 |
| 20260506122946 | 7 | 0 | 6.4 | 6.4 | 0.00 | 1.09 | 1.09 | 99 | 1012.0 |
| 20260506122443 | 6 | 313 | 1.6 | 3.2 | 0.00 | 1.09 | 1.09 | 99 | 1012.1 |
| 20260506121941 | 6 | 316 | 1.6 | 3.2 | 0.00 | 1.09 | 1.09 | 99 | 1011.8 |
| 20260506121438 | 6 | 342 | 3.2 | 4.8 | 0.00 | 1.09 | 1.09 | 99 | 1011.7 |
| 20260506120934 | 7 | 326 | 3.2 | 3.2 | 0.00 | 1.09 | 1.09 | 99 | 1011.7 |
| 20260506120432 | 6 | 39 | 0.0 | 0.0 | 0.00 | 1.09 | 1.09 | 99 | 1011.4 |
| 20260506115929 | 6 | 25 | 1.6 | 1.6 | 0.00 | 1.09 | 1.09 | 99 | 1011.6 |
| 20260506115427 | 6 | 25 | 0.0 | 1.6 | 0.00 | 1.09 | 1.09 | 99 | 1011.6 |
| 20260506114925 | 6 | 25 | 0.0 | 0.0 | 0.00 | 1.09 | 1.09 | 99 | 1011.6 |
| 20260506114422 | 6 | 25 | 0.0 | 0.0 | 0.00 | 1.09 | 1.09 | 99 | 1011.7 |
| 20260506113921 | 6 | 25 | 1.6 | 3.2 | 0.00 | 1.09 | 1.09 | 99 | 1011.7 |
| 20260506113418 | 6 | 25 | 0.0 | 0.0 | 0.00 | 1.09 | 1.09 | 99 | 1011.6 |
| 20260506112915 | 6 | 25 | 0.0 | 0.0 | 0.00 | 1.09 | 1.09 | 99 | 1011.8 |
| 20260506112413 | 6 | 25 | 0.0 | 0.0 | 0.00 | 1.09 | 1.09 | 99 | 1011.8 |
| 20260506111910 | 6 | 25 | 0.0 | 0.0 | 0.00 | 1.09 | 1.09 | 99 | 1011.7 |
| 20260506111408 | 6 | 25 | 1.6 | 1.6 | 0.00 | 1.09 | 1.09 | 99 | 1011.5 |
| 20260506110904 | 6 | 25 | 1.6 | 3.2 | 0.00 | 1.09 | 1.09 | 99 | 1011.2 |
| 20260506110402 | 6 | 25 | 1.6 | 1.6 | 0.00 | 1.09 | 1.09 | 99 | 1011.0 |
| 20260506105858 | 6 | 25 | 0.0 | 0.0 | 0.00 | 1.09 | 1.09 | 99 | 1010.7 |
| 20260506105355 | 6 | 25 | 3.2 | 3.2 | 0.00 | 1.09 | 1.09 | 99 | 1011.0 |
| 20260506104852 | 6 | 296 | 1.6 | 1.6 | 0.00 | 1.09 | 1.09 | 99 | 1011.2 |
| 20260506104350 | 6 | 296 | 1.6 | 1.6 | 0.00 | 1.09 | 1.09 | 99 | 1011.1 |
| 20260506103848 | 6 | 320 | 1.6 | 3.2 | 0.00 | 1.09 | 1.09 | 99 | 1010.7 |
| 20260506103345 | 6 | 320 | 3.2 | 4.8 | 0.00 | 1.09 | 1.09 | 99 | 1010.7 |
| 20260506102842 | 6 | 329 | 1.6 | 3.2 | 0.00 | 1.09 | 1.09 | 99 | 1010.7 |
| 20260506102340 | 6 | 329 | 3.2 | 4.8 | 0.00 | 1.09 | 1.09 | 99 | 1010.9 |
| 20260506101837 | 6 | 11 | 6.4 | 6.4 | 0.00 | 1.09 | 1.09 | 99 | 1010.6 |
| 20260506101333 | 6 | 25 | 3.2 | 3.2 | 0.00 | 1.09 | 1.09 | 99 | 1009.9 |
| 20260506100831 | 6 | 331 | 3.2 | 4.8 | 0.00 | 1.09 | 1.09 | 99 | 1010.2 |
| 20260506100329 | 6 | 330 | 0.0 | 0.0 | 0.00 | 1.09 | 1.09 | 99 | 1009.9 |
| 20260506095827 | 6 | 330 | 0.0 | 1.6 | 0.00 | 1.09 | 1.09 | 99 | 1009.8 |
| 20260506095324 | 6 | 331 | 1.6 | 3.2 | 0.00 | 1.09 | 1.09 | 99 | 1009.7 |
| 20260506094820 | 6 | 357 | 3.2 | 4.8 | 0.00 | 1.09 | 1.09 | 99 | 1009.8 |
| 20260506094319 | 6 | 25 | 3.2 | 4.8 | 0.00 | 1.09 | 1.09 | 99 | 1009.5 |
| 20260506093817 | 6 | 35 | 3.2 | 3.2 | 0.00 | 1.09 | 1.09 | 99 | 1009.6 |
| 20260506093314 | 6 | 25 | 3.2 | 3.2 | 0.18 | 1.09 | 1.09 | 99 | 1009.9 |
| 20260506092812 | 6 | 358 | 6.4 | 6.4 | 0.18 | 1.09 | 1.09 | 99 | 1010.1 |
| 20260506092309 | 6 | 35 | 3.2 | 3.2 | 0.00 | 1.07 | 1.07 | 99 | 1010.3 |
| 20260506091806 | 6 | 9 | 4.8 | 4.8 | 0.00 | 1.07 | 1.07 | 99 | 1010.7 |
| 20260506091304 | 6 | 20 | 3.2 | 3.2 | 0.13 | 1.07 | 1.07 | 99 | 1010.7 |
| 20260506090801 | 6 | 11 | 6.4 | 9.7 | 0.13 | 1.07 | 1.07 | 99 | 1010.7 |
| 20260506090258 | 7 | 327 | 3.2 | 3.2 | 0.13 | 1.07 | 1.07 | 99 | 1010.5 |
| 20260506085755 | 7 | 318 | 0.0 | 0.0 | 0.18 | 1.04 | 1.04 | 99 | 1010.7 |
| 20260506085251 | 7 | 318 | 4.8 | 4.8 | 0.36 | 1.04 | 1.04 | 99 | 1010.5 |
| 20260506084748 | 6 | 348 | 0.0 | 0.0 | 0.18 | 1.02 | 1.02 | 99 | 1010.6 |
| 20260506084244 | 6 | 12 | 1.6 | 1.6 | 0.00 | 0.99 | 0.99 | 99 | 1010.6 |
| 20260506083741 | 6 | 345 | 3.2 | 3.2 | 0.00 | 0.99 | 0.99 | 99 | 1010.2 |
| 20260506083239 | 6 | 340 | 1.6 | 1.6 | 0.00 | 0.99 | 0.99 | 99 | 1010.4 |
| 20260506082737 | 6 | 340 | 1.6 | 1.6 | 0.00 | 0.99 | 0.99 | 99 | 1010.3 |
| 20260506082231 | 6 | 1 | 0.0 | 0.0 | 0.00 | 0.99 | 0.99 | 99 | 1010.4 |
| 20260506081730 | 6 | 3 | 3.2 | 3.2 | 0.13 | 0.99 | 0.99 | 99 | 1010.2 |
| 20260506081227 | 6 | 358 | 1.6 | 1.6 | 0.13 | 0.99 | 0.99 | 99 | 1010.4 |
| 20260506080725 | 6 | 5 | 3.2 | 4.8 | 0.00 | 0.97 | 0.97 | 99 | 1010.3 |
| 20260506080221 | 6 | 325 | 3.2 | 4.8 | 0.18 | 0.97 | 0.97 | 99 | 1010.6 |
| 20260506073205 | 6 | 32 | 3.2 | 3.2 | 0.43 | 0.84 | 0.84 | 99 | 1010.2 |
| 20260506072702 | 6 | 29 | 4.8 | 6.4 | 0.48 | 0.81 | 0.81 | 99 | 1010.4 |
| 20260506072200 | 6 | 26 | 3.2 | 3.2 | 0.30 | 0.76 | 0.76 | 99 | 1010.3 |
| 20260506071657 | 6 | 356 | 4.8 | 6.4 | 0.30 | 0.74 | 0.74 | 99 | 1010.3 |
| 20260506071155 | 6 | 14 | 4.8 | 9.7 | 0.36 | 0.71 | 0.71 | 99 | 1010.3 |
| 20260506070651 | 6 | 34 | 12.9 | 16.1 | 0.30 | 0.69 | 0.69 | 99 | 1010.0 |
| 20260506070148 | 7 | 12 | 4.8 | 4.8 | 0.30 | 0.66 | 0.66 | 99 | 1009.9 |
| 20260506062125 | 7 | 17 | 3.2 | 3.2 | 0.18 | 0.43 | 0.43 | 99 | 1010.1 |
| 20260506061621 | 7 | 3 | 4.8 | 4.8 | 0.13 | 0.41 | 0.41 | 99 | 1010.1 |
| 20260506061120 | 7 | 38 | 4.8 | 4.8 | 0.13 | 0.41 | 0.41 | 99 | 1010.0 |
| 20260506060617 | 7 | 19 | 3.2 | 4.8 | 0.00 | 0.38 | 0.38 | 99 | 1010.1 |
| 20260506060114 | 7 | 21 | 3.2 | 3.2 | 0.18 | 0.38 | 0.38 | 99 | 1010.1 |
| 20260506051046 | 8 | 33 | 1.6 | 1.6 | 0.13 | 0.18 | 0.18 | 99 | 1010.5 |
| 20260506050544 | 8 | 30 | 0.0 | 0.0 | 0.18 | 0.15 | 0.15 | 99 | 1010.3 |
| 20260506045034 | 8 | 30 | 3.2 | 3.2 | 0.13 | 0.13 | 0.13 | 99 | 1010.3 |
| 20260506044532 | 8 | 41 | 1.6 | 3.2 | 0.13 | 0.13 | 0.13 | 99 | 1010.4 |
| 20260506044029 | 8 | 29 | 1.6 | 1.6 | 0.18 | 0.10 | 0.10 | 99 | 1010.3 |
| 20260506043526 | 8 | 19 | 3.2 | 4.8 | 0.18 | 0.10 | 0.10 | 99 | 1010.3 |
| 20260506043024 | 8 | 30 | 1.6 | 1.6 | 0.18 | 0.08 | 0.08 | 99 | 1010.5 |
| 20260506042523 | 8 | 20 | 3.2 | 3.2 | 0.18 | 0.08 | 0.08 | 99 | 1010.3 |
| 20260506042021 | 8 | 29 | 1.6 | 1.6 | 0.00 | 0.05 | 0.05 | 99 | 1010.5 |
| 20260506041519 | 8 | 20 | 3.2 | 3.2 | 0.13 | 0.05 | 0.05 | 99 | 1010.4 |
| 20260506041015 | 8 | 22 | 3.2 | 3.2 | 0.30 | 0.05 | 0.05 | 99 | 1010.4 |
| 20260506040513 | 8 | 356 | 3.2 | 3.2 | 0.30 | 0.03 | 0.03 | 99 | 1010.6 |
| 20260506040009 | 8 | 18 | 4.8 | 6.4 | 0.30 | 2.90 | 2.90 | 99 | 1010.4 |
| 20260506035506 | 8 | 359 | 4.8 | 6.4 | 0.18 | 2.87 | 2.87 | 99 | 1010.6 |
| 20260506035003 | 8 | 47 | 3.2 | 4.8 | 0.30 | 2.87 | 2.87 | 99 | 1010.7 |
| 20260506034500 | 8 | 20 | 4.8 | 4.8 | 0.43 | 2.84 | 2.84 | 99 | 1010.9 |
| 20260506033957 | 9 | 12 | 3.2 | 3.2 | 0.48 | 2.82 | 2.82 | 99 | 1011.0 |
| 20260506033455 | 9 | 12 | 0.0 | 1.6 | 0.30 | 2.77 | 2.77 | 99 | 1011.0 |
| 20260506032951 | 9 | 345 | 3.2 | 3.2 | 0.13 | 2.74 | 2.74 | 99 | 1011.1 |
| 20260506032449 | 9 | 38 | 1.6 | 3.2 | 0.18 | 2.72 | 2.72 | 99 | 1011.1 |
| 20260506031944 | 9 | 354 | 3.2 | 4.8 | 0.30 | 2.72 | 2.72 | 99 | 1011.2 |
| 20260506031442 | 9 | 354 | 1.6 | 3.2 | 0.13 | 2.69 | 2.69 | 99 | 1011.3 |
| 20260506030940 | 9 | 353 | 3.2 | 3.2 | 0.18 | 2.67 | 2.67 | 99 | 1011.5 |
| 20260506030438 | 9 | 358 | 1.6 | 1.6 | 0.36 | 2.67 | 2.67 | 99 | 1011.4 |
| 20260506025934 | 9 | 359 | 3.2 | 4.8 | 0.18 | 2.64 | 2.64 | 99 | 1011.4 |
| 20260506025431 | 9 | 353 | 1.6 | 1.6 | 0.30 | 2.64 | 2.64 | 99 | 1011.3 |
| 20260506024928 | 9 | 359 | 3.2 | 4.8 | 0.13 | 2.62 | 2.62 | 99 | 1011.4 |
| 20260506024425 | 9 | 43 | 3.2 | 3.2 | 0.18 | 2.59 | 2.59 | 99 | 1011.4 |
| 20260506023920 | 9 | 353 | 1.6 | 1.6 | 0.18 | 2.59 | 2.59 | 99 | 1011.2 |
| 20260506023418 | 9 | 19 | 6.4 | 9.7 | 0.13 | 2.57 | 2.57 | 99 | 1011.2 |
| 20260506022914 | 9 | 16 | 3.2 | 3.2 | 0.30 | 2.57 | 2.57 | 99 | 1011.4 |
| 20260506022412 | 9 | 12 | 1.6 | 1.6 | 0.48 | 2.54 | 2.54 | 99 | 1011.7 |
| 20260506021910 | 10 | 355 | 3.2 | 4.8 | 0.43 | 2.51 | 2.51 | 99 | 1011.3 |
| 20260506021407 | 10 | 355 | 1.6 | 1.6 | 0.30 | 2.46 | 2.46 | 99 | 1011.4 |
| 20260506020903 | 10 | 355 | 0.0 | 0.0 | 0.48 | 2.44 | 2.44 | 99 | 1011.4 |
| 20260506020402 | 10 | 355 | 0.0 | 0.0 | 0.43 | 2.41 | 2.41 | 99 | 1011.5 |
| 20260506015859 | 10 | 353 | 3.2 | 3.2 | 0.30 | 2.36 | 2.36 | 99 | 1011.1 |
| 20260506015356 | 10 | 56 | 1.6 | 1.6 | 0.36 | 2.34 | 2.34 | 99 | 1011.1 |
| 20260506014853 | 10 | 43 | 3.2 | 3.2 | 0.30 | 2.31 | 2.31 | 99 | 1010.7 |
| 20260506014350 | 10 | 358 | 3.2 | 3.2 | 0.30 | 2.29 | 2.29 | 99 | 1010.9 |
| 20260506013846 | 10 | 24 | 1.6 | 1.6 | 0.30 | 2.26 | 2.26 | 99 | 1010.7 |
| 20260506013344 | 10 | 40 | 1.6 | 1.6 | 0.43 | 2.24 | 2.24 | 99 | 1010.5 |
| 20260506012840 | 10 | 3 | 3.2 | 3.2 | 0.48 | 2.21 | 2.21 | 99 | 1010.3 |
| 20260506012337 | 10 | 36 | 3.2 | 3.2 | 0.61 | 2.16 | 2.16 | 99 | 1010.4 |
| 20260506011834 | 10 | 29 | 3.2 | 3.2 | 0.89 | 2.13 | 2.13 | 99 | 1010.6 |
| 20260506011331 | 10 | 32 | 6.4 | 6.4 | 0.79 | 2.06 | 2.06 | 99 | 1010.5 |
| 20260506010828 | 10 | 341 | 3.2 | 4.8 | 0.79 | 2.01 | 2.01 | 99 | 1010.5 |
| 20260506010326 | 10 | 32 | 3.2 | 4.8 | 1.19 | 1.93 | 1.93 | 99 | 1010.4 |
| 20260506005823 | 10 | 4 | 6.4 | 6.4 | 1.37 | 1.85 | 1.85 | 99 | 1010.4 |
| 20260506005320 | 10 | 17 | 4.8 | 4.8 | 0.97 | 1.73 | 1.73 | 99 | 1010.2 |
| 20260506004816 | 10 | 22 | 4.8 | 6.4 | 0.89 | 1.63 | 1.63 | 99 | 1010.0 |
| 20260506004314 | 11 | 0 | 3.2 | 3.2 | 0.89 | 1.55 | 1.55 | 99 | 1010.2 |
| 20260506003809 | 11 | 0 | 1.6 | 3.2 | 0.97 | 1.50 | 1.50 | 99 | 1010.3 |
| 20260506003306 | 11 | 35 | 1.6 | 1.6 | 0.89 | 1.42 | 1.42 | 99 | 1009.9 |
| 20260506002802 | 11 | 35 | 0.0 | 0.0 | 0.61 | 1.32 | 1.32 | 99 | 1009.9 |
| 20260506002259 | 11 | 35 | 0.0 | 0.0 | 0.30 | 1.24 | 1.24 | 99 | 1009.9 |
| 20260506001754 | 11 | 35 | 0.0 | 0.0 | 0.30 | 1.22 | 1.22 | 99 | 1009.8 |
| 20260506001252 | 11 | 34 | 3.2 | 3.2 | 0.71 | 1.19 | 1.19 | 99 | 1009.7 |
| 20260506000749 | 11 | 48 | 3.2 | 3.2 | 0.79 | 1.17 | 1.17 | 99 | 1009.7 |
| 20260506000247 | 11 | 15 | 3.2 | 3.2 | 0.79 | 1.07 | 1.07 | 99 | 1009.9 |
| 20260505235743 | 12 | 353 | 1.6 | 3.2 | 0.79 | 1.04 | 1.04 | 99 | 1010.0 |
| 20260505235241 | 12 | 356 | 3.2 | 3.2 | 0.61 | 0.97 | 0.97 | 99 | 1010.0 |
| 20260505234737 | 12 | 10 | 4.8 | 4.8 | 0.43 | 0.91 | 0.91 | 99 | 1009.9 |
| 20260505234235 | 12 | 355 | 4.8 | 4.8 | 0.13 | 0.86 | 0.86 | 99 | 1009.9 |
| 20260505233731 | 13 | 25 | 4.8 | 6.4 | 0.00 | 0.84 | 0.84 | 99 | 1009.7 |
| 20260505233230 | 13 | 356 | 0.0 | 0.0 | 0.18 | 0.84 | 0.84 | 99 | 1009.9 |
| 20260505232726 | 13 | 356 | 0.0 | 0.0 | 0.18 | 0.84 | 0.84 | 99 | 1009.8 |
| 20260505232224 | 13 | 356 | 0.0 | 0.0 | 0.00 | 0.81 | 0.81 | 99 | 1009.9 |
| 20260505231720 | 13 | 356 | 0.0 | 1.6 | 0.00 | 0.81 | 0.81 | 99 | 1010.0 |
| 20260505231220 | 13 | 356 | 0.0 | 0.0 | 0.13 | 0.81 | 0.81 | 99 | 1010.1 |
| 20260505230717 | 13 | 356 | 0.0 | 0.0 | 0.13 | 0.81 | 0.81 | 99 | 1009.9 |
| 20260505230214 | 13 | 356 | 0.0 | 0.0 | 0.18 | 0.79 | 0.79 | 99 | 1010.0 |
| 20260505225710 | 13 | 356 | 0.0 | 0.0 | 0.30 | 0.79 | 0.79 | 99 | 1010.0 |
| 20260505225207 | 13 | 355 | 1.6 | 1.6 | 0.48 | 0.76 | 0.76 | 99 | 1010.1 |
| 20260505224702 | 13 | 345 | 0.0 | 1.6 | 0.48 | 0.74 | 0.74 | 99 | 1010.3 |
| 20260505224200 | 13 | 345 | 0.0 | 0.0 | 0.61 | 0.71 | 0.71 | 99 | 1010.3 |
| 20260505223658 | 13 | 345 | 0.0 | 0.0 | 0.48 | 0.66 | 0.66 | 99 | 1010.3 |
| 20260505223153 | 13 | 345 | 0.0 | 0.0 | 0.48 | 0.61 | 0.61 | 99 | 1010.4 |
| 20260505222650 | 13 | 345 | 0.0 | 1.6 | 0.71 | 0.58 | 0.58 | 99 | 1010.3 |
| 20260505222146 | 13 | 309 | 1.6 | 1.6 | 1.07 | 0.53 | 0.53 | 99 | 1010.2 |
| 20260505221643 | 13 | 308 | 0.0 | 0.0 | 0.97 | 0.46 | 0.46 | 99 | 1010.6 |
| 20260505221140 | 14 | 309 | 1.6 | 3.2 | 0.43 | 0.36 | 0.36 | 99 | 1010.3 |
| 20260505220637 | 14 | 329 | 3.2 | 3.2 | 0.30 | 0.30 | 0.30 | 99 | 1010.0 |
| 20260505220135 | 14 | 329 | 0.0 | 1.6 | 0.18 | 0.28 | 0.28 | 99 | 1009.8 |
| 20260505215632 | 14 | 329 | 0.0 | 0.0 | 0.00 | 0.25 | 0.25 | 99 | 1009.6 |
| 20260505215130 | 14 | 329 | 0.0 | 0.0 | 0.00 | 0.25 | 0.25 | 99 | 1009.7 |
| 20260505214628 | 14 | 329 | 0.0 | 0.0 | 0.00 | 0.25 | 0.25 | 99 | 1009.5 |
| 20260505214125 | 14 | 329 | 0.0 | 0.0 | 0.00 | 0.25 | 0.25 | 99 | 1009.6 |
| 20260505213622 | 14 | 329 | 0.0 | 1.6 | 0.00 | 0.25 | 0.25 | 99 | 1009.9 |
| 20260505213119 | 14 | 329 | 0.0 | 0.0 | 0.00 | 0.25 | 0.25 | 99 | 1009.9 |
| 20260505212615 | 14 | 329 | 1.6 | 3.2 | 0.00 | 0.25 | 0.25 | 99 | 1009.9 |
| 20260505212113 | 14 | 329 | 0.0 | 0.0 | 0.00 | 0.25 | 0.25 | 99 | 1009.8 |
| 20260505211609 | 14 | 329 | 0.0 | 0.0 | 0.00 | 0.25 | 0.25 | 99 | 1009.8 |
| 20260505211107 | 14 | 329 | 0.0 | 0.0 | 0.00 | 0.25 | 0.25 | 99 | 1009.9 |
| 20260505210603 | 14 | 329 | 0.0 | 0.0 | 0.00 | 0.25 | 0.25 | 99 | 1010.0 |
| 20260505210100 | 14 | 341 | 4.8 | 4.8 | 0.00 | 0.25 | 0.25 | 99 | 1010.0 |
| 20260505205558 | 14 | 341 | 0.0 | 0.0 | 0.00 | 0.25 | 0.25 | 99 | 1010.0 |
| 20260505205055 | 14 | 341 | 1.6 | 1.6 | 0.00 | 0.25 | 0.25 | 99 | 1010.0 |
| 20260505204552 | 14 | 341 | 0.0 | 0.0 | 0.00 | 0.25 | 0.25 | 99 | 1010.0 |
| 20260505204049 | 14 | 341 | 1.6 | 1.6 | 0.00 | 0.25 | 0.25 | 98 | 1010.0 |
| 20260505203546 | 15 | 341 | 3.2 | 4.8 | 0.30 | 0.25 | 0.25 | 98 | 1010.1 |
| 20260505203043 | 14 | 252 | 1.6 | 1.6 | 0.61 | 0.25 | 0.25 | 98 | 1010.2 |
| 20260505202539 | 15 | 252 | 0.0 | 0.0 | 0.30 | 0.20 | 0.20 | 98 | 1010.1 |
| 20260505202035 | 15 | 253 | 1.6 | 3.2 | 0.00 | 0.15 | 0.15 | 98 | 1010.4 |
| 20260505201532 | 15 | 253 | 0.0 | 0.0 | 0.00 | 0.15 | 0.15 | 97 | 1010.1 |
| 20260505201030 | 15 | 253 | 3.2 | 3.2 | 0.00 | 0.15 | 0.15 | 97 | 1010.3 |
| 20260505200528 | 15 | 253 | 1.6 | 1.6 | 0.00 | 0.15 | 0.15 | 97 | 1010.1 |
| 20260505200024 | 15 | 253 | 1.6 | 1.6 | 0.30 | 0.15 | 0.15 | 96 | 1010.2 |
| 20260505195520 | 15 | 233 | 3.2 | 4.8 | 0.79 | 0.15 | 0.15 | 96 | 1010.3 |
| 20260505195018 | 15 | 288 | 1.6 | 3.2 | 0.79 | 0.13 | 0.13 | 93 | 1010.1 |
| 20260505194515 | 16 | 271 | 0.0 | 0.0 | 0.13 | 0.03 | 0.03 | 89 | 1010.2 |
| 20260505194010 | 16 | 309 | 3.2 | 3.2 | 0.00 | 0.00 | 0.00 | 87 | 1010.5 |
| 20260505193508 | 16 | 10 | 3.2 | 3.2 | 0.00 | 0.00 | 0.00 | 87 | 1010.3 |
| 20260505193005 | 16 | 342 | 3.2 | 3.2 | 0.00 | 0.00 | 0.00 | 86 | 1010.3 |
| 20260505192503 | 16 | 314 | 1.6 | 3.2 | 0.00 | 0.00 | 0.00 | 86 | 1010.3 |
| 20260505192000 | 16 | 355 | 1.6 | 3.2 | 0.00 | 0.00 | 0.00 | 86 | 1010.2 |
| 20260505191459 | 17 | 6 | 3.2 | 6.4 | 0.00 | 0.00 | 0.00 | 85 | 1010.3 |
| 20260505190956 | 17 | 327 | 3.2 | 3.2 | 0.00 | 0.00 | 0.00 | 84 | 1010.1 |
| 20260505190450 | 17 | 273 | 1.6 | 3.2 | 0.00 | 0.00 | 0.00 | 83 | 1010.2 |
| 20260505185946 | 17 | 257 | 3.2 | 4.8 | 0.00 | 0.00 | 0.00 | 82 | 1010.1 |
| 20260505185444 | 17 | 230 | 3.2 | 4.8 | 0.00 | 0.00 | 0.00 | 80 | 1010.1 |
| 20260505184940 | 18 | 253 | 6.4 | 6.4 | 0.00 | 0.00 | 0.00 | 77 | 1010.1 |
| 20260505184437 | 18 | 252 | 1.6 | 1.6 | 0.00 | 0.00 | 0.00 | 77 | 1010.1 |
| 20260505183933 | 18 | 243 | 0.0 | 0.0 | 0.00 | 0.00 | 0.00 | 77 | 1010.1 |
| 20260505183430 | 18 | 242 | 1.6 | 3.2 | 0.00 | 0.00 | 0.00 | 77 | 1010.2 |
| 20260505182927 | 18 | 193 | 0.0 | 1.6 | 0.00 | 0.00 | 0.00 | 74 | 1010.1 |
| 20260505182424 | 18 | 189 | 0.0 | 0.0 | 0.00 | 0.00 | 0.00 | 78 | 1010.3 |
| 20260505181920 | 17 | 188 | 1.6 | 1.6 | 0.00 | 0.00 | 0.00 | 79 | 1010.3 |
| 20260505181418 | 17 | 187 | 1.6 | 3.2 | 0.00 | 0.00 | 0.00 | 79 | 1010.7 |
| 20260505180914 | 17 | 254 | 3.2 | 3.2 | 0.00 | 0.00 | 0.00 | 79 | 1010.6 |
| 20260505180411 | 17 | 248 | 1.6 | 1.6 | 0.00 | 0.00 | 0.00 | 78 | 1010.4 |
| 20260505175908 | 17 | 248 | 4.8 | 6.4 | 0.00 | 0.00 | 0.00 | 77 | 1010.5 |
| 20260505175404 | 17 | 216 | 6.4 | 9.7 | 0.00 | 0.00 | 0.00 | 79 | 1010.5 |
| 20260505174900 | 17 | 243 | 4.8 | 6.4 | 0.00 | 0.00 | 0.00 | 77 | 1010.4 |
| 20260505174358 | 17 | 245 | 3.2 | 3.2 | 0.00 | 0.00 | 0.00 | 77 | 1010.3 |
| 20260505173854 | 17 | 236 | 3.2 | 3.2 | 0.00 | 0.00 | 0.00 | 79 | 1010.3 |
| 20260505173350 | 17 | 241 | 4.8 | 6.4 | 0.00 | 0.00 | 0.00 | 78 | 1010.4 |
| 20260505172847 | 17 | 253 | 8.0 | 9.7 | 0.00 | 0.00 | 0.00 | 77 | 1010.5 |
| 20260505172345 | 17 | 249 | 4.8 | 6.4 | 0.00 | 0.00 | 0.00 | 76 | 1010.5 |
| 20260505171844 | 17 | 246 | 6.4 | 9.7 | 0.00 | 0.00 | 0.00 | 76 | 1010.6 |
| 20260505171342 | 17 | 243 | 6.4 | 9.7 | 0.00 | 0.00 | 0.00 | 76 | 1010.6 |
| 20260505170838 | 17 | 247 | 3.2 | 4.8 | 0.00 | 0.00 | 0.00 | 76 | 1010.6 |
| 20260505170335 | 17 | 204 | 6.4 | 11.3 | 0.00 | 0.00 | 0.00 | 77 | 1010.5 |
| 20260505165830 | 17 | 207 | 1.6 | 3.2 | 0.00 | 0.00 | 0.00 | 76 | 1010.4 |
| 20260505165326 | 17 | 208 | 1.6 | 3.2 | 0.00 | 0.00 | 0.00 | 75 | 1010.6 |
| 20260505164822 | 18 | 251 | 8.0 | 9.7 | 0.00 | 0.00 | 0.00 | 74 | 1010.6 |
| 20260505164319 | 18 | 256 | 3.2 | 6.4 | 0.00 | 0.00 | 0.00 | 74 | 1010.4 |
| 20260505163818 | 18 | 258 | 12.9 | 20.9 | 0.00 | 0.00 | 0.00 | 72 | 1010.4 |
| 20260505163316 | 18 | 238 | 6.4 | 9.7 | 0.00 | 0.00 | 0.00 | 71 | 1010.3 |
| 20260505162814 | 18 | 235 | 4.8 | 6.4 | 0.00 | 0.00 | 0.00 | 70 | 1010.3 |
| 20260505162310 | 18 | 243 | 8.0 | 11.3 | 0.00 | 0.00 | 0.00 | 69 | 1010.3 |
| 20260505161807 | 18 | 242 | 14.5 | 16.1 | 0.00 | 0.00 | 0.00 | 68 | 1010.5 |
| 20260505161304 | 19 | 233 | 8.0 | 11.3 | 0.00 | 0.00 | 0.00 | 70 | 1010.4 |
| 20260505160801 | 19 | 248 | 12.9 | 16.1 | 0.00 | 0.00 | 0.00 | 67 | 1010.3 |
| 20260505160259 | 19 | 257 | 11.3 | 14.5 | 0.00 | 0.00 | 0.00 | 67 | 1010.6 |
| 20260505153238 | 20 | 276 | 6.4 | 9.7 | 0.00 | 0.00 | 0.00 | 64 | 1009.8 |
| 20260505152736 | 20 | 225 | 8.0 | 11.3 | 0.00 | 0.00 | 0.00 | 67 | 1009.5 |
| 20260505152232 | 20 | 225 | 14.5 | 20.9 | 0.00 | 0.00 | 0.00 | 68 | 1009.5 |
| 20260505151732 | 20 | 194 | 16.1 | 17.7 | 0.00 | 0.00 | 0.00 | 65 | 1009.4 |
| 20260505151229 | 20 | 181 | 12.9 | 14.5 | 0.00 | 0.00 | 0.00 | 69 | 1008.9 |
| 20260505150726 | 20 | 190 | 8.0 | 11.3 | 0.00 | 0.00 | 0.00 | 69 | 1009.2 |
| 20260505150224 | 20 | 181 | 6.4 | 11.3 | 0.00 | 0.00 | 0.00 | 69 | 1009.2 |